sat.trackr.live / text

‹ back to catalog

STARLINK-30934

NORAD 58395 · 2023-178X

PAYLOAD ACTIVE UNKNOWN

§ Identity

Operator
Country
US
Launch date
2023-11-20
Launch site
AFWTR
Launch vehicle
Mass (kg)
RCS (m²)

Purposes: comms

External: N2YO · Heavens-Above · Gunter

§ Orbital elements

Epoch: 2026-09-20T06:46:58.375776Z

Period
93.85 min
Inclination
53.1601°
Eccentricity
0.0001361
Mean motion
15.34398008 rev/d
Perigee alt
461.8 km
Apogee alt
463.6 km
Semi-major
6,840.8 km
B*
9.3092e-5
RAAN
173.0882°
Arg perigee
98.6107°
Mean anomaly
261.5050°
Rev number
15,967

§ Raw data

STARLINK-309341 58395U 23178X   26263.28262009  .00002770  00000+0  93092-4 0  99912 58395  53.1601 173.0882 0001361  98.6107 261.5050 15.34398008159677

JSON: /api/v1/satellites/58395 · /tle

For live sub-satellite position, see the globe view (requires WebGL).

§ Visibility from observer

Set your observer location to see the next 7 days of passes ≥ 10°. The values pass through the URL so the page stays shareable.

No JS? Fill the form by hand. The geolocation button needs JavaScript.